Regional Weather Roundup
Issued by NWS

Home | Current Version | Previous Version | Graphics & Text | Print | Product List | Glossary On
Versions: 1 2 3 4 5 6 7 8 9 10 11 12 13 14 15 16 17 18 19 20 21 22 23 24 25 26 27 28 29 30 31 32 33 34 35 36 37 38 39 40 41 42 43 44 45 46 47 48 49 50
000
ASUS43 KLOT 230804
RWRIL

ILLINOIS REGIONAL WEATHER ROUNDUP
NATIONAL WEATHER SERVICE CHICAGO/ROMEOVILLE IL
300 AM CDT TUE MAY 23 2017

NOTE: "FAIR" INDICATES FEW OR NO CLOUDS BELOW 12,000 FEET WITH NO
SIGNIFICANT WEATHER AND/OR OBSTRUCTIONS TO VISIBILITY.

* THESE STATIONS ARE NOT UNDER NWS QUALITY CONTROL. THEY ALSO MAY NOT
  REPORT WEATHER SUCH AS PRECIPITATION OR FOG.

ILZ001-002-007-009-015-016-024-230900-
NORTHWEST ILLINOIS

CITY           SKY/WX    TMP DP  RH WIND       PRES   REMARKS
MOLINE         CLOUDY    57  50  77 SW8       29.81F
STERLING*      MOCLDY    56  53  90 VRB5      29.82F
$$

ILZ003-004-008-010-011-017-018-230900-
NORTH CENTRAL ILLINOIS

CITY           SKY/WX    TMP DP  RH WIND       PRES   REMARKS
ROCKFORD       CLOUDY    56  53  90 S6        29.82F
FREEPORT*      CLOUDY    55  54  95 S10       29.81F
ROCHELLE*      MOCLDY    54  53  95 S6        29.83F
DE KALB*       CLOUDY    55  53  94 S7        29.83F
$$

ILZ005-006-012>014-019>023-230900-
NORTHEAST ILLINOIS

CITY           SKY/WX    TMP DP  RH WIND       PRES   REMARKS
CHICAGO-OHARE  CLOUDY    60  53  77 SW10      29.83F
CHICAGO-MIDWAY CLOUDY    60  54  80 S8        29.84F
AURORA         CLOUDY    59  55  87 S7        29.83F
LANSING*       CLOUDY    59  55  88 SW8       29.86F
WAUKEGAN       CLOUDY    58  54  86 SW7       29.81F
DUPAGE AIRPORT CLOUDY    57  55  93 S6        29.82F
WHEELING       CLOUDY    59  55  87 S7        29.83F
MORRIS*        CLOUDY    59  53  81 SW8       29.83F
NORTHERLY ISL    N/A     61  52  72 S7          N/A
$$

LMZ740>746-230900-
SOUTHERN LAKE MICHIGAN

STATION/POSITION SKY/WX   TEMP    WIND        PRES    VSBY  WAVE
                          AIR SEA DIR/SP/G                  HT/PER
                          (F)     (DEG/KT/KT) (MB)    (MI)  (FT/S)
SOUTHERN BUOY              50 45  230/  8/ 10 1011.0          2/ 4
WILMETTE HARBOR            58 54                N/A           2/ 3
HARRISON CRIB              62     210/ 16/ 18   N/A
BURNHAM HARBOR             61     180/  6/ 12   N/A
CALUMET HARBOR             61     200/  7/ 12 1010.4F
BURNS HARBOR               60     200/ 11/ 17 1011.5F
MICHIGAN CITY              61     200/ 15/ 17   N/A
MICHIGAN CITY 6N           58 53  220/ 14/ 19   N/A           2/ 3
ST. JOSEPH                 58 55  220/  8/ 10 1011.5F         2/ 4
$$

ILZ025>027-034>036-040-047-049-050-058-095>099-230900-
WEST-CENTRAL ILLINOIS

CITY           SKY/WX    TMP DP  RH WIND       PRES   REMARKS
QUINCY         LGT RAIN  56  54  93 S5        29.87F
GALESBURG*     DRIZZLE   56  53  91 S10       29.83F
MACOMB*        CLOUDY    56  55  94 SW8       29.88R
JACKSONVILLE*  CLOUDY    56  55  97 SE3       29.86F
$$

ILZ028>032-037-038-041>044-048-051>054-059>061-230900-
CENTRAL ILLINOIS

CITY           SKY/WX    TMP DP  RH WIND       PRES   REMARKS
BLOOMINGTON    LGT RAIN  57  53  86 W8        29.88F
DECATUR        CLOUDY    57  54  89 NE3       29.88F
PEORIA         LGT RAIN  57  55  93 SW5       29.85F
LACON*         CLOUDY    57  55  91 SW9       29.83F
LINCOLN*       DRIZZLE   58  58 100 CALM      29.87F
SPRINGFIELD    LGT RAIN  59  57  93 E3        29.87F
TAYLORVILLE    NOT AVBL
$$

ILZ033-039-045-046-055>057-062-063-230900-
EAST-CENTRAL ILLINOIS

CITY           SKY/WX    TMP DP  RH WIND       PRES   REMARKS
CHAMPAIGN      CLOUDY    58  54  86 N5        29.88F
MATTOON        PTCLDY    59  55  87 MISG      29.88F
$$

ILZ079-100>102-230900-
SOUTHWEST ILLINOIS

CITY           SKY/WX    TMP DP  RH WIND       PRES   REMARKS
BELLEVILLE     CLOUDY    60  54  82 CALM      29.87F
CAHOKIA*       CLOUDY    62  54  74 CALM      29.86F
SPARTA*        CLOUDY    60  55  85 CALM      29.87F
$$

ILZ064>066-069>071-074>076-080>082-084>086-088>090-092>094-230900-
SOUTH-CENTRAL ILLINOIS

CITY           SKY/WX    TMP DP  RH WIND       PRES   REMARKS
CARBONDALE     PTCLDY    58  56  93 E3        29.86F
CAIRO*         PTCLDY    58  56  91 CALM      29.86F
EFFINGHAM*     CLOUDY    59  57  93 CALM      29.90F
MARION         MOCLDY    59  57  94 CALM      29.88F
MT. VERNON       N/A     57  54  89 CALM      29.87F
CENTRALIA*     MOCLDY    62  56  80 SE5       29.86F
SALEM*         CLOUDY    63  51  66 SE5       29.87F
$$

ILZ067-068-072-073-078-083-087-091-230900-
SOUTHEAST ILLINOIS

CITY           SKY/WX    TMP DP  RH WIND       PRES   REMARKS
LAWRENCEVILLE  CLOUDY    62  52  69 CALM      29.89F
FLORA*         CLOUDY    62  56  79 CALM      29.88F
FAIRFIELD*     CLOUDY    59  54  82 CALM      29.87F
HARRISBURG*    MOCLDY    58  55  89 CALM      29.88F
ROBINSON*      CLOUDY    59  55  86 CALM      29.90F
CARMI*         CLOUDY    60  56  84 CALM      29.88F
$$

ABBREVIATIONS USED IN REMARKS
   TC - TEMPERATURE IN CELSIUS
  WCI - WIND CHILL INDEX
   HX - HEAT INDEX
  VSB - VISIBILITY
$$





USA.gov is the U.S. government's official web portal to all federal, state and local government web resources and services.